Time,TemperatureF,DewpointF,PressureIn,WindDirection,WindDirectionDegrees,WindSpeedMPH,WindSpeedGustMPH,Humidity,HourlyPrecipIn,Conditions,Clouds,dailyrainin,SoftwareType,DateUTC
2013-04-26 00:02:00,36.0,17.0,30.13,WSW,241,5.0,12.0,46,0.00,,,0.00,,2013-04-26 06:02:00,
2013-04-26 00:11:00,36.0,17.0,30.13,WSW,241,5.0,12.0,46,0.00,,,0.00,,2013-04-26 06:11:00,
2013-04-26 00:21:00,35.0,18.0,30.13,SW,233,4.0,12.0,49,0.00,,,0.00,,2013-04-26 06:21:00,
2013-04-26 00:32:00,35.0,17.0,30.14,SW,218,2.0,11.0,48,0.00,,,0.00,,2013-04-26 06:32:00,
2013-04-26 00:42:00,35.0,17.0,30.14,SW,218,2.0,11.0,48,0.00,,,0.00,,2013-04-26 06:42:00,
2013-04-26 00:52:00,34.0,18.0,30.14,SW,222,1.0,10.0,51,0.00,,,0.00,,2013-04-26 06:52:00,
2013-04-26 01:01:00,35.0,17.0,30.16,West,265,1.0,5.0,47,0.00,,,0.00,,2013-04-26 07:01:00,
2013-04-26 01:11:00,35.0,17.0,30.16,West,265,1.0,5.0,47,0.00,,,0.00,,2013-04-26 07:11:00,
2013-04-26 01:22:00,36.0,16.0,30.15,WSW,253,0.0,10.0,43,0.00,,,0.00,,2013-04-26 07:22:00,
2013-04-26 01:31:00,36.0,15.0,30.15,West,259,0.0,6.0,41,0.00,,,0.00,,2013-04-26 07:31:00,
2013-04-26 01:42:00,36.0,15.0,30.15,West,259,0.0,6.0,41,0.00,,,0.00,,2013-04-26 07:42:00,
2013-04-26 01:52:00,36.0,14.0,30.15,WSW,252,0.0,2.0,40,0.00,,,0.00,,2013-04-26 07:52:00,
2013-04-26 02:02:00,36.0,13.0,30.16,South,181,0.0,1.0,39,0.00,,,0.00,,2013-04-26 08:02:00,
2013-04-26 02:11:00,36.0,13.0,30.16,South,181,0.0,1.0,39,0.00,,,0.00,,2013-04-26 08:11:00,
2013-04-26 02:21:00,33.0,15.0,30.14,SSW,198,1.0,6.0,47,0.00,,,0.00,,2013-04-26 08:21:00,
2013-04-26 02:32:00,35.0,14.0,30.15,SW,219,1.0,13.0,42,0.00,,,0.00,,2013-04-26 08:32:00,
2013-04-26 02:42:00,35.0,14.0,30.15,SW,219,1.0,13.0,42,0.00,,,0.00,,2013-04-26 08:42:00,
2013-04-26 02:52:00,30.0,16.0,30.16,SE,140,1.0,14.0,56,0.00,,,0.00,,2013-04-26 08:52:00,
2013-04-26 03:01:00,32.0,15.0,30.13,South,178,6.0,16.0,48,0.00,,,0.00,,2013-04-26 09:01:00,
2013-04-26 03:11:00,32.0,15.0,30.13,South,178,6.0,16.0,48,0.00,,,0.00,,2013-04-26 09:11:00,
2013-04-26 03:21:00,31.0,15.0,30.15,SSE,167,5.0,18.0,50,0.00,,,0.00,,2013-04-26 09:21:00,
2013-04-26 03:33:00,31.0,15.0,30.16,South,185,9.0,17.0,50,0.00,,,0.00,,2013-04-26 09:33:00,
2013-04-26 03:42:00,31.0,15.0,30.16,South,185,9.0,17.0,50,0.00,,,0.00,,2013-04-26 09:42:00,
2013-04-26 03:53:00,31.0,14.0,30.18,South,179,1.0,13.0,48,0.00,,,0.00,,2013-04-26 09:53:00,
2013-04-26 04:03:00,32.0,13.0,30.18,SSW,204,1.0,12.0,44,0.00,,,0.00,,2013-04-26 10:03:00,
2013-04-26 04:12:00,32.0,13.0,30.18,SSW,204,1.0,12.0,44,0.00,,,0.00,,2013-04-26 10:12:00,
2013-04-26 04:23:00,31.0,14.0,30.18,SW,217,4.0,19.0,49,0.00,,,0.00,,2013-04-26 10:23:00,
2013-04-26 04:33:00,30.0,13.0,30.19,South,174,7.0,15.0,49,0.00,,,0.00,,2013-04-26 10:33:00,
2013-04-26 04:42:00,30.0,13.0,30.19,South,174,7.0,15.0,49,0.00,,,0.00,,2013-04-26 10:42:00,
2013-04-26 04:52:00,30.0,13.0,30.19,SSW,198,8.0,18.0,48,0.00,,,0.00,,2013-04-26 10:52:00,
2013-04-26 05:02:00,28.0,13.0,30.19,South,176,3.0,17.0,52,0.00,,,0.00,,2013-04-26 11:02:00,
2013-04-26 05:11:00,28.0,13.0,30.19,South,176,3.0,17.0,52,0.00,,,0.00,,2013-04-26 11:11:00,
2013-04-26 05:22:00,31.0,12.0,30.21,South,185,10.0,16.0,44,0.00,,,0.00,,2013-04-26 11:22:00,
2013-04-26 05:32:00,31.0,13.0,30.22,SSW,209,7.0,14.0,47,0.00,,,0.00,,2013-04-26 11:32:00,
2013-04-26 05:41:00,31.0,13.0,30.22,SSW,209,7.0,14.0,47,0.00,,,0.00,,2013-04-26 11:41:00,
2013-04-26 05:52:00,30.0,12.0,30.21,SSW,199,6.0,11.0,46,0.00,,,0.00,,2013-04-26 11:52:00,
2013-04-26 06:01:00,30.0,12.0,30.22,SSE,161,4.0,11.0,47,0.00,,,0.00,,2013-04-26 12:01:00,
2013-04-26 06:11:00,30.0,12.0,30.22,SSE,161,4.0,11.0,47,0.00,,,0.00,,2013-04-26 12:11:00,
2013-04-26 06:21:00,29.0,11.0,30.22,South,169,8.0,12.0,47,0.00,,,0.00,,2013-04-26 12:21:00,
2013-04-26 06:32:00,30.0,12.0,30.22,SSW,205,8.0,16.0,47,0.00,,,0.00,,2013-04-26 12:32:00,
2013-04-26 06:41:00,30.0,12.0,30.22,SSW,205,8.0,16.0,47,0.00,,,0.00,,2013-04-26 12:41:00,
2013-04-26 06:52:00,30.0,11.0,30.23,SSW,194,10.0,17.0,45,0.00,,,0.00,,2013-04-26 12:52:00,
2013-04-26 07:01:00,31.0,13.0,30.24,SW,235,8.0,15.0,46,0.00,,,0.00,,2013-04-26 13:01:00,
2013-04-26 07:11:00,31.0,13.0,30.24,SW,235,8.0,15.0,46,0.00,,,0.00,,2013-04-26 13:11:00,
2013-04-26 07:21:00,31.0,12.0,30.24,South,190,6.0,14.0,45,0.00,,,0.00,,2013-04-26 13:21:00,
2013-04-26 07:31:00,32.0,14.0,30.26,SSW,207,5.0,15.0,46,0.00,,,0.00,,2013-04-26 13:31:00,
2013-04-26 07:41:00,32.0,14.0,30.26,SSW,207,5.0,15.0,46,0.00,,,0.00,,2013-04-26 13:41:00,
2013-04-26 07:52:00,32.0,14.0,30.27,SSW,202,6.0,16.0,47,0.00,,,0.00,,2013-04-26 13:52:00,
2013-04-26 08:01:00,34.0,13.0,30.27,SSW,205,10.0,15.0,41,0.00,,,0.00,,2013-04-26 14:01:00,
2013-04-26 08:11:00,34.0,13.0,30.27,SSW,205,10.0,15.0,41,0.00,,,0.00,,2013-04-26 14:11:00,
2013-04-26 08:21:00,35.0,13.0,30.26,SSW,202,4.0,13.0,40,0.00,,,0.00,,2013-04-26 14:21:00,
2013-04-26 08:32:00,35.0,16.0,30.28,South,178,6.0,12.0,46,0.00,,,0.00,,2013-04-26 14:32:00,
2013-04-26 08:41:00,35.0,16.0,30.28,South,178,6.0,12.0,46,0.00,,,0.00,,2013-04-26 14:41:00,
2013-04-26 08:52:00,34.0,16.0,30.27,South,191,11.0,16.0,47,0.00,,,0.00,,2013-04-26 14:52:00,
2013-04-26 09:01:00,35.0,17.0,30.28,South,183,7.0,18.0,48,0.00,,,0.00,,2013-04-26 15:01:00,
2013-04-26 09:12:00,35.0,17.0,30.28,South,183,7.0,18.0,48,0.00,,,0.00,,2013-04-26 15:12:00,
2013-04-26 09:21:00,36.0,16.0,30.28,SSE,167,8.0,17.0,44,0.00,,,0.00,,2013-04-26 15:21:00,
2013-04-26 09:33:00,38.0,18.0,30.28,South,171,9.0,14.0,44,0.00,,,0.00,,2013-04-26 15:33:00,
2013-04-26 09:42:00,38.0,18.0,30.28,South,171,9.0,14.0,44,0.00,,,0.00,,2013-04-26 15:42:00,
2013-04-26 09:53:00,40.0,20.0,30.29,SSW,196,5.0,14.0,44,0.00,,,0.00,,2013-04-26 15:53:00,
2013-04-26 10:03:00,41.0,20.0,30.28,South,178,6.0,12.0,42,0.00,,,0.00,,2013-04-26 16:03:00,
2013-04-26 10:12:00,41.0,20.0,30.28,South,178,6.0,12.0,42,0.00,,,0.00,,2013-04-26 16:12:00,
2013-04-26 10:23:00,43.0,19.0,30.29,SSW,206,4.0,9.0,38,0.00,,,0.00,,2013-04-26 16:23:00,
2013-04-26 10:33:00,45.0,18.0,30.29,SE,140,0.0,6.0,34,0.00,,,0.00,,2013-04-26 16:33:00,
2013-04-26 10:42:00,45.0,18.0,30.29,SE,140,0.0,6.0,34,0.00,,,0.00,,2013-04-26 16:42:00,
2013-04-26 10:52:00,48.0,16.0,30.30,NE,54,3.0,6.0,27,0.00,,,0.00,,2013-04-26 16:52:00,
2013-04-26 11:02:00,49.0,16.0,30.30,ENE,59,4.0,6.0,26,0.00,,,0.00,,2013-04-26 17:02:00,
2013-04-26 11:12:00,49.0,16.0,30.30,ENE,59,4.0,6.0,26,0.00,,,0.00,,2013-04-26 17:12:00,
2013-04-26 11:21:00,49.0,16.0,30.31,NE,55,7.0,10.0,27,0.00,,,0.00,,2013-04-26 17:21:00,
2013-04-26 11:31:00,50.0,18.0,30.31,NE,47,2.0,8.0,28,0.00,,,0.00,,2013-04-26 17:31:00,
2013-04-26 11:41:00,50.0,18.0,30.31,NE,47,2.0,8.0,28,0.00,,,0.00,,2013-04-26 17:41:00,
2013-04-26 11:52:00,50.0,16.0,30.31,NE,40,1.0,10.0,25,0.00,,,0.00,,2013-04-26 17:52:00,
2013-04-26 12:02:00,51.0,19.0,30.31,NE,41,0.0,2.0,28,0.00,,,0.00,,2013-04-26 18:02:00,
2013-04-26 12:11:00,51.0,17.0,30.31,NE,37,5.0,7.0,26,0.00,,,0.00,,2013-04-26 18:11:00,
2013-04-26 12:22:00,51.0,17.0,30.31,NE,37,5.0,7.0,26,0.00,,,0.00,,2013-04-26 18:22:00,
2013-04-26 12:33:00,51.0,16.0,30.31,NNE,32,0.0,11.0,24,0.00,,,0.00,,2013-04-26 18:33:00,
2013-04-26 12:41:00,51.0,16.0,30.31,NNE,32,0.0,11.0,24,0.00,,,0.00,,2013-04-26 18:41:00,
2013-04-26 12:52:00,52.0,19.0,30.29,NNE,27,8.0,13.0,27,0.00,,,0.00,,2013-04-26 18:52:00,
2013-04-26 13:01:00,52.0,19.0,30.29,NNE,32,5.0,13.0,27,0.00,,,0.00,,2013-04-26 19:01:00,
2013-04-26 13:11:00,52.0,19.0,30.29,NNE,32,5.0,13.0,27,0.00,,,0.00,,2013-04-26 19:11:00,
2013-04-26 13:22:00,52.0,17.0,30.29,NE,43,2.0,14.0,25,0.00,,,0.00,,2013-04-26 19:22:00,
2013-04-26 13:31:00,53.0,17.0,30.31,ENE,74,3.0,11.0,24,0.00,,,0.00,,2013-04-26 19:31:00,
2013-04-26 13:41:00,53.0,17.0,30.31,ENE,74,3.0,11.0,24,0.00,,,0.00,,2013-04-26 19:41:00,
2013-04-26 13:52:00,52.0,17.0,30.30,ESE,106,4.0,9.0,25,0.00,,,0.00,,2013-04-26 19:52:00,
2013-04-26 14:02:00,53.0,19.0,30.31,North,355,3.0,10.0,26,0.00,,,0.00,,2013-04-26 20:02:00,
2013-04-26 14:11:00,54.0,19.0,30.30,ESE,119,2.0,10.0,25,0.00,,,0.00,,2013-04-26 20:11:00,
2013-04-26 14:21:00,54.0,19.0,30.30,ESE,119,2.0,10.0,25,0.00,,,0.00,,2013-04-26 20:21:00,
2013-04-26 14:32:00,54.0,19.0,30.30,NNW,341,6.0,11.0,25,0.00,,,0.00,,2013-04-26 20:32:00,
2013-04-26 14:42:00,54.0,19.0,30.30,NNW,341,6.0,11.0,25,0.00,,,0.00,,2013-04-26 20:42:00,
2013-04-26 14:52:00,54.0,18.0,30.30,NNW,337,6.0,11.0,24,0.00,,,0.00,,2013-04-26 20:52:00,
2013-04-26 15:01:00,54.0,18.0,30.30,ENE,75,2.0,9.0,24,0.00,,,0.00,,2013-04-26 21:01:00,
2013-04-26 15:11:00,54.0,18.0,30.30,ENE,75,2.0,9.0,24,0.00,,,0.00,,2013-04-26 21:11:00,
2013-04-26 15:21:00,54.0,18.0,30.30,East,99,4.0,8.0,24,0.00,,,0.00,,2013-04-26 21:21:00,
2013-04-26 15:32:00,54.0,20.0,30.30,NE,55,1.0,16.0,26,0.00,,,0.00,,2013-04-26 21:32:00,
2013-04-26 15:42:00,54.0,20.0,30.30,NE,55,1.0,16.0,26,0.00,,,0.00,,2013-04-26 21:42:00,
2013-04-26 15:53:00,54.0,20.0,30.30,ENE,63,2.0,11.0,26,0.00,,,0.00,,2013-04-26 21:53:00,
2013-04-26 16:02:00,54.0,21.0,30.30,NE,51,3.0,16.0,27,0.00,,,0.00,,2013-04-26 22:02:00,
2013-04-26 16:12:00,54.0,21.0,30.30,NE,51,3.0,16.0,27,0.00,,,0.00,,2013-04-26 22:12:00,
2013-04-26 16:23:00,54.0,21.0,30.29,NE,38,8.0,17.0,27,0.00,,,0.00,,2013-04-26 22:23:00,
2013-04-26 16:33:00,54.0,22.0,30.29,North,9,8.0,15.0,29,0.00,,,0.00,,2013-04-26 22:33:00,
2013-04-26 16:42:00,54.0,22.0,30.29,North,9,8.0,15.0,29,0.00,,,0.00,,2013-04-26 22:42:00,
2013-04-26 16:52:00,54.0,22.0,30.29,NE,36,2.0,11.0,28,0.00,,,0.00,,2013-04-26 22:52:00,
2013-04-26 17:02:00,53.0,19.0,30.30,NNE,33,1.0,13.0,26,0.00,,,0.00,,2013-04-26 23:02:00,
2013-04-26 17:11:00,53.0,19.0,30.30,NNE,33,1.0,13.0,26,0.00,,,0.00,,2013-04-26 23:11:00,
2013-04-26 17:21:00,54.0,22.0,30.29,NNE,23,8.0,13.0,28,0.00,,,0.00,,2013-04-26 23:21:00,
2013-04-26 17:32:00,53.0,22.0,30.29,NNE,30,7.0,12.0,29,0.00,,,0.00,,2013-04-26 23:32:00,
2013-04-26 17:42:00,53.0,22.0,30.29,NNE,30,7.0,12.0,29,0.00,,,0.00,,2013-04-26 23:42:00,
2013-04-26 17:52:00,52.0,20.0,30.30,NNE,23,2.0,7.0,28,0.00,,,0.00,,2013-04-26 23:52:00,
2013-04-26 18:01:00,52.0,20.0,30.30,NNE,29,4.0,10.0,28,0.00,,,0.00,,2013-04-27 00:01:00,
2013-04-26 18:11:00,52.0,20.0,30.30,NNE,29,4.0,10.0,28,0.00,,,0.00,,2013-04-27 00:11:00,
2013-04-26 18:21:00,53.0,19.0,30.31,NE,51,6.0,9.0,26,0.00,,,0.00,,2013-04-27 00:21:00,
2013-04-26 18:32:00,52.0,19.0,30.29,NE,43,6.0,9.0,27,0.00,,,0.00,,2013-04-27 00:32:00,
2013-04-26 18:41:00,52.0,19.0,30.29,NE,43,6.0,9.0,27,0.00,,,0.00,,2013-04-27 00:41:00,
2013-04-26 18:52:00,52.0,20.0,30.30,North,355,4.0,7.0,28,0.00,,,0.00,,2013-04-27 00:52:00,
2013-04-26 19:01:00,49.0,21.0,30.31,North,355,3.0,4.0,33,0.00,,,0.00,,2013-04-27 01:01:00,
2013-04-26 19:12:00,49.0,21.0,30.31,North,355,3.0,4.0,33,0.00,,,0.00,,2013-04-27 01:12:00,
2013-04-26 19:21:00,47.0,21.0,30.31,North,355,2.0,4.0,36,0.00,,,0.00,,2013-04-27 01:21:00,
2013-04-26 19:32:00,47.0,21.0,30.31,North,355,0.0,1.0,36,0.00,,,0.00,,2013-04-27 01:32:00,
2013-04-26 19:42:00,47.0,21.0,30.31,North,355,0.0,1.0,36,0.00,,,0.00,,2013-04-27 01:42:00,
2013-04-26 19:52:00,46.0,21.0,30.33,North,355,0.0,4.0,37,0.00,,,0.00,,2013-04-27 01:52:00,
2013-04-26 20:01:00,45.0,20.0,30.31,North,355,3.0,4.0,36,0.00,,,0.00,,2013-04-27 02:01:00,
2013-04-26 20:11:00,45.0,20.0,30.31,North,355,3.0,4.0,36,0.00,,,0.00,,2013-04-27 02:11:00,
2013-04-26 20:22:00,44.0,19.0,30.33,WNW,293,4.0,6.0,37,0.00,,,0.00,,2013-04-27 02:22:00,
2013-04-26 20:32:00,43.0,20.0,30.34,WNW,285,1.0,5.0,39,0.00,,,0.00,,2013-04-27 02:32:00,
2013-04-26 20:42:00,43.0,20.0,30.34,WNW,285,1.0,5.0,39,0.00,,,0.00,,2013-04-27 02:42:00,
2013-04-26 20:52:00,43.0,19.0,30.34,West,281,0.0,2.0,38,0.00,,,0.00,,2013-04-27 02:52:00,
2013-04-26 21:02:00,40.0,22.0,30.34,West,279,1.0,3.0,48,0.00,,,0.00,,2013-04-27 03:02:00,
2013-04-26 21:11:00,40.0,22.0,30.34,West,279,1.0,3.0,48,0.00,,,0.00,,2013-04-27 03:11:00,
2013-04-26 21:22:00,41.0,22.0,30.34,SSE,165,3.0,6.0,47,0.00,,,0.00,,2013-04-27 03:22:00,
2013-04-26 21:32:00,40.0,21.0,30.34,SSE,166,0.0,3.0,47,0.00,,,0.00,,2013-04-27 03:32:00,
2013-04-26 21:42:00,40.0,21.0,30.34,SSE,166,0.0,3.0,47,0.00,,,0.00,,2013-04-27 03:42:00,
2013-04-26 21:53:00,39.0,21.0,30.35,SE,146,1.0,4.0,49,0.00,,,0.00,,2013-04-27 03:53:00,
2013-04-26 22:02:00,38.0,21.0,30.36,SSE,163,5.0,8.0,49,0.00,,,0.00,,2013-04-27 04:02:00,
2013-04-26 22:12:00,38.0,21.0,30.36,SSE,163,5.0,8.0,49,0.00,,,0.00,,2013-04-27 04:12:00,
2013-04-26 22:22:00,41.0,20.0,30.36,SSW,212,7.0,12.0,42,0.00,,,0.00,,2013-04-27 04:22:00,
2013-04-26 22:33:00,41.0,20.0,30.35,SSW,209,0.0,12.0,43,0.00,,,0.00,,2013-04-27 04:33:00,
2013-04-26 22:43:00,41.0,20.0,30.35,SSW,209,0.0,12.0,43,0.00,,,0.00,,2013-04-27 04:43:00,
2013-04-26 22:53:00,40.0,19.0,30.35,SSW,204,0.0,7.0,42,0.00,,,0.00,,2013-04-27 04:53:00,
2013-04-26 23:02:00,40.0,19.0,30.35,SW,236,0.0,0.0,42,0.00,,,0.00,,2013-04-27 05:02:00,
2013-04-26 23:12:00,40.0,19.0,30.35,SW,236,0.0,0.0,42,0.00,,,0.00,,2013-04-27 05:12:00,
2013-04-26 23:22:00,38.0,18.0,30.35,SSW,205,7.0,12.0,43,0.00,,,0.00,,2013-04-27 05:22:00,
2013-04-26 23:32:00,39.0,17.0,30.35,SSW,207,7.0,13.0,41,0.00,,,0.00,,2013-04-27 05:32:00,
2013-04-26 23:42:00,39.0,17.0,30.35,SSW,207,7.0,13.0,41,0.00,,,0.00,,2013-04-27 05:42:00,
2013-04-26 23:52:00,38.0,18.0,30.35,SSW,209,9.0,17.0,43,0.00,,,0.00,,2013-04-27 05:52:00,